TimeCST,TemperatureF,Dew PointF,Humidity,Sea Level PressureIn,VisibilityMPH,Wind Direction,Wind SpeedMPH,Gust SpeedMPH,PrecipitationIn,Events,Conditions,WindDirDegrees,DateUTC
12:29 AM,37.4,33.8,87,29.53,2.5,ENE,17.3,27.6,0.01,Rain-Thunderstorm,Rain,60,2012-12-26 06:29:00
12:50 AM,37.4,35.6,93,29.52,2.5,ENE,16.1,28.8,0.09,Rain,Rain,60,2012-12-26 06:50:00
12:52 AM,37.0,35.1,93,29.53,2.5,ENE,15.0,28.8,0.10,Rain,Rain,60,2012-12-26 06:52:00
12:59 AM,37.4,35.6,93,29.54,3.0,ENE,15.0,23.0,0.02,Rain,Rain,70,2012-12-26 06:59:00
1:07 AM,37.4,35.6,93,29.54,2.0,ENE,12.7,19.6,0.09,Rain,Heavy Rain,60,2012-12-26 07:07:00
1:40 AM,37.4,35.6,93,29.53,3.0,NNE,12.7,-,0.29,Rain,Heavy Rain,20,2012-12-26 07:40:00
1:52 AM,37.0,35.1,93,29.53,3.0,North,12.7,18.4,0.34,Rain,Heavy Rain,360,2012-12-26 07:52:00
2:07 AM,37.4,35.6,93,29.52,8.0,North,12.7,-,0.02,Rain,Light Rain,350,2012-12-26 08:07:00
2:15 AM,37.4,35.6,93,29.52,7.0,NNW,12.7,-,0.03,Rain,Light Rain,340,2012-12-26 08:15:00
2:52 AM,36.0,34.0,93,29.50,6.0,NNE,19.6,26.5,0.06,Snow,Light Snow,20,2012-12-26 08:52:00
3:04 AM,35.6,33.8,93,29.47,5.0,North,18.4,-,0.01,Snow,Light Snow,10,2012-12-26 09:04:00
3:12 AM,35.6,33.8,93,29.47,4.0,NNE,18.4,24.2,0.03,Rain,Rain,20,2012-12-26 09:12:00
3:52 AM,36.0,34.0,93,29.47,7.0,North,-9999.0,-,0.12,Rain,Light Rain,0,2012-12-26 09:52:00
4:52 AM,35.1,33.1,92,29.49,6.0,North,12.7,-,0.08,Rain,Light Rain,350,2012-12-26 10:52:00
5:52 AM,34.0,32.0,92,29.49,10.0,North,13.8,-,0.02,Rain,Light Rain,350,2012-12-26 11:52:00
6:52 AM,33.1,32.0,96,29.54,4.0,NW,15.0,-,0.03,Snow,Light Snow,320,2012-12-26 12:52:00
7:41 AM,33.8,30.2,87,29.56,1.8,NW,13.8,-,0.02,Snow,Light Snow,310,2012-12-26 13:41:00
7:52 AM,33.1,30.9,92,29.57,1.2,NW,16.1,23.0,0.03,Snow,Light Snow,310,2012-12-26 13:52:00
8:14 AM,33.8,30.2,87,29.58,0.5,NW,18.4,24.2,0.00,Fog-Snow,Snow,310,2012-12-26 14:14:00
8:52 AM,33.1,30.9,92,29.62,1.2,NW,18.4,-,0.01,Snow,Light Snow,320,2012-12-26 14:52:00
9:25 AM,33.8,30.2,87,29.63,3.0,NW,17.3,24.2,0.00,Snow,Light Snow,320,2012-12-26 15:25:00
9:33 AM,33.8,30.2,87,29.64,5.0,NW,19.6,26.5,0.00,,Overcast,320,2012-12-26 15:33:00
9:39 AM,33.8,30.2,87,29.65,6.0,NNW,16.1,26.5,0.00,,Overcast,330,2012-12-26 15:39:00
9:47 AM,33.8,30.2,87,29.65,8.0,NW,16.1,25.3,0.00,,Overcast,320,2012-12-26 15:47:00
9:52 AM,34.0,30.9,89,29.67,9.0,NNW,16.1,25.3,0.00,,Overcast,330,2012-12-26 15:52:00
10:52 AM,34.0,30.9,89,29.72,9.0,NW,20.7,25.3,N/A,,Overcast,310,2012-12-26 16:52:00
11:16 AM,33.8,30.2,87,29.72,1.5,WNW,20.7,27.6,0.00,Snow,Light Snow,300,2012-12-26 17:16:00
11:25 AM,33.8,30.2,87,29.73,0.5,WNW,17.3,26.5,0.00,Fog-Snow,Snow,290,2012-12-26 17:25:00
11:37 AM,33.8,30.2,87,29.73,0.8,NW,17.3,25.3,0.00,Snow,Light Snow,310,2012-12-26 17:37:00
11:44 AM,33.8,30.2,87,29.74,2.0,NW,18.4,25.3,0.00,Snow,Light Snow,310,2012-12-26 17:44:00
11:52 AM,33.1,30.0,89,29.75,9.0,WNW,18.4,32.2,0.00,,Overcast,300,2012-12-26 17:52:00
12:11 PM,33.8,28.4,81,29.75,10.0,NW,18.4,28.8,N/A,,Overcast,310,2012-12-26 18:11:00
12:52 PM,33.1,28.9,85,29.79,10.0,WNW,20.7,28.8,N/A,,Overcast,300,2012-12-26 18:52:00
1:52 PM,33.1,28.0,82,29.83,10.0,NW,18.4,28.8,N/A,,Overcast,320,2012-12-26 19:52:00
2:29 PM,33.8,28.4,81,29.84,10.0,NW,17.3,26.5,N/A,,Overcast,320,2012-12-26 20:29:00
2:52 PM,33.1,28.0,82,29.87,10.0,NW,21.9,29.9,N/A,,Overcast,320,2012-12-26 20:52:00
3:52 PM,33.1,28.0,82,29.92,10.0,NW,17.3,28.8,N/A,,Overcast,320,2012-12-26 21:52:00
4:52 PM,33.1,28.0,82,29.96,10.0,NW,15.0,25.3,N/A,,Overcast,310,2012-12-26 22:52:00
5:52 PM,33.1,28.0,82,30.00,10.0,NW,17.3,24.2,N/A,,Overcast,320,2012-12-26 23:52:00
6:52 PM,34.0,28.0,79,30.03,10.0,NW,17.3,23.0,N/A,,Overcast,320,2012-12-27 00:52:00
7:52 PM,34.0,28.0,79,30.06,10.0,NW,13.8,19.6,N/A,,Overcast,310,2012-12-27 01:52:00
8:52 PM,33.1,28.0,82,30.07,10.0,NNW,9.2,-,N/A,,Overcast,330,2012-12-27 02:52:00
9:52 PM,33.1,28.0,82,30.10,10.0,WNW,8.1,-,N/A,,Overcast,300,2012-12-27 03:52:00
10:52 PM,33.1,28.0,82,30.10,10.0,NW,10.4,-,N/A,,Overcast,310,2012-12-27 04:52:00
11:52 PM,33.1,28.0,82,30.12,10.0,WNW,8.1,-,N/A,,Overcast,300,2012-12-27 05:52:00